Flag for India Weather past 2 weeks in Kolkata, West Bengal, India

Now
86 °F

Broken clouds.


Feels Like: 102 °F
Forecast: 81 / 90 °F
Wind: 8 mph from Southeast

Location: Calcutta / Dum Dum

Current Time: Aug 21, 2014 at 6:22:56 PM

Latest Report: Aug 21, 2014 at 5:20 PM


Visibility: 2 mi

Pressure: 29.59 "Hg

Humidity: 84%

Dew point: 81 °F

Location of KolkataLocation

Historic Weather in Kolkata — Graph

°F

Kolkata temperature yesterday

Maximum temperature yesterday: 91 °F (at 2:50 PM)
Minimum temperature yesterday: 77 °F (at 6:20 AM)
Average temperature yesterday: 84 °F

Past Weeks' High & Low Weather Summary

 TemperatureHumidityPressure
High95 °F (Aug 19, 1:50 PM)94% (Aug 7, 2:20 PM)29.77 "Hg (Aug 7, 2:20 PM)
Low77 °F (Aug 20, 6:20 AM)59% (Aug 18, 2:50 PM)29.39 "Hg (Aug 8, 4:20 PM)
Average85 °F85%29.58 "Hg
* Reported Aug 6 4:50 PM — Aug 21 5:20 PM, Kolkata, Weather by CustomWeather, © 2014

Note: Actual official high and low records may vary slightly from our data, if they occured in-between our weather recording intervals... More about our weather records

Advertising

Kolkata weather history for previous 24 hours

 ConditionsComfort  
Time TempWeatherWind HumidityBarometerVisibility
5:20 PM
Aug 21
86 °FBroken clouds.8 mph84%29.59 "Hg1 mi
4:50 PM86 °FBroken clouds.7 mph84%29.56 "Hg1 mi
4:20 PM86 °FBroken clouds.6 mph84%29.56 "Hg1 mi
3:50 PM84 °FBroken clouds.6 mph89%29.56 "Hg1 mi
3:20 PM84 °FBroken clouds.7 mph89%29.59 "Hg1 mi
2:50 PM84 °FBroken clouds.9 mph89%29.59 "Hg1 mi
2:20 PM84 °FBroken clouds.9 mph94%29.59 "Hg1 mi
1:50 PM84 °FThunderstorms. More clouds than sun.6 mph94%29.62 "Hg1 mi
1:20 PM84 °FThunderstorms. More clouds than sun.8 mph94%29.59 "Hg1 mi
12:50 PM84 °FThunderstorms. More clouds than sun.No wind94%29.62 "Hg1 mi
12:20 PM84 °FLight rain. More clouds than sun.N/A94%29.62 "Hg2 mi
11:50 AM86 °FLight rain. More clouds than sun.7 mph84%29.65 "Hg1 mi
11:20 AM91 °FLight rain. Broken clouds.6 mph71%29.65 "Hg2 mi
10:50 AM91 °FScattered clouds.7 mph71%29.65 "Hg2 mi
10:20 AM90 °FScattered clouds.7 mph75%29.68 "Hg2 mi
9:50 AM90 °FScattered clouds.7 mph75%29.68 "Hg2 mi
9:20 AM88 °FScattered clouds.7 mph79%29.68 "Hg2 mi
8:50 AM88 °FScattered clouds.6 mph79%29.68 "Hg2 mi
8:20 AM88 °FScattered clouds.5 mph79%29.68 "Hg2 mi
7:50 AM86 °FScattered clouds.No wind84%29.68 "Hg2 mi
7:20 AM84 °FFog.No wind89%29.65 "Hg1 mi
6:50 AM82 °FFog.No wind94%29.65 "Hg1 mi
6:20 AM81 °FFog.3 mph94%29.62 "Hg1 mi
5:50 AM81 °FFog.5 mph94%29.62 "Hg1 mi
5:20 AM81 °FFog.No wind94%29.62 "Hg1 mi
4:50 AM81 °FPassing clouds.No wind89%29.59 "Hg2 mi
4:20 AM81 °FPassing clouds.No wind89%29.59 "Hg2 mi
3:50 AM81 °FPassing clouds.No wind89%29.59 "Hg2 mi
3:20 AM81 °FPassing clouds.No wind89%29.59 "Hg2 mi
2:50 AM81 °FPassing clouds.No wind89%29.59 "Hg2 mi
2:20 AM81 °FPassing clouds.No wind89%29.59 "Hg2 mi
1:50 AM81 °FPassing clouds.No wind89%29.62 "Hg2 mi
1:20 AM81 °FPassing clouds.No wind89%29.62 "Hg2 mi
12:50 AM81 °FPassing clouds.No wind89%29.65 "Hg2 mi
12:20 AM81 °FPassing clouds.3 mph89%29.65 "Hg2 mi
11:50 PM
Aug 20
81 °FPassing clouds.No wind89%29.65 "Hg2 mi
11:20 PM81 °FLight rain. Partly cloudy.3 mph94%29.68 "Hg2 mi
10:50 PM81 °FLight rain. Partly cloudy.6 mph94%29.68 "Hg2 mi
10:20 PM82 °FLight rain. Partly cloudy.8 mph89%29.68 "Hg2 mi
9:50 PM86 °FPartly cloudy.8 mph84%29.68 "Hg2 mi
9:20 PM86 °FPassing clouds.8 mph84%29.68 "Hg2 mi
8:50 PM86 °FPassing clouds.7 mph89%29.68 "Hg2 mi
8:20 PM86 °FPassing clouds.9 mph89%29.65 "Hg2 mi
7:50 PM86 °FPassing clouds.7 mph89%29.65 "Hg2 mi
7:20 PM86 °FPassing clouds.5 mph89%29.62 "Hg2 mi
6:50 PM86 °FPassing clouds.7 mph89%29.62 "Hg2 mi
6:20 PM86 °FScattered clouds.7 mph89%29.62 "Hg2 mi
Weather by CustomWeather, © 2014

See weather overviewHow to use our weather pages